Flag for Germany Weather past 2 weeks in Hof (Saale), Bavaria, Germany

Now
62 °F

Low clouds.


Feels Like: 62 °F
Forecast: 55 / 72 °F
Wind: 2 mph from Northwest

Location: Hof

Current Time: Jul 30, 2014 at 3:11:01 AM

Latest Report: Jul 30, 2014 at 2:00 AM


Visibility: 1 mi

Pressure: 29.69 "Hg

Humidity: 99%

Dew point: 62 °F

Location of Hof (Saale)Location

Historic Weather in Hof (Saale) — Graph

°F

Hof (Saale) temperature yesterday

Maximum temperature yesterday: 71 °F (at 11:00 AM)
Minimum temperature yesterday: 61 °F (at 1:00 AM)
Average temperature yesterday: 65 °F

Past Weeks' High & Low Weather Summary

 TemperatureHumidityPressure
High87 °F (Jul 20, 4:00 PM)99% (Jul 29, 11:00 PM)30.16 "Hg (Jul 29, 11:00 PM)
Low54 °F (Jul 15, 6:00 AM)25% (Jul 19, 5:00 PM)29.69 "Hg (Jul 30, 2:00 AM)
Average68 °F68%29.92 "Hg
* Reported Jul 15 2:00 AM — Jul 30 2:00 AM, Hof (Saale), Weather by CustomWeather, © 2014

Note: Actual official high and low records may vary slightly from our data, if they occured in-between our weather recording intervals... More about our weather records

Advertising

Hof (Saale) weather history for previous 24 hours

 ConditionsComfort  
Time TempWeatherWind HumidityBarometerVisibility
2:00 AM
Jul 30
62 °FLow clouds.2 mph99%29.69 "Hg1 mi
1:00 AM62 °FOvercast.2 mph97%29.70 "Hg2 mi
12:00 AM60 °FPassing clouds.1 mph99%29.72 "Hg0 mi
11:00 PM
Jul 29
61 °FOvercast.2 mph99%29.71 "Hg1 mi
10:00 PM63 °FFog.1 mph98%29.70 "Hg2 mi
9:00 PM64 °FFog.1 mph96%29.70 "Hg2 mi
8:00 PM65 °FOvercast.1 mph92%29.70 "Hg5 mi
7:00 PM65 °FOvercast.1 mph89%29.70 "Hg6 mi
6:00 PM65 °FLight rain. Overcast.1 mph87%29.69 "Hg9 mi
4:00 PM67 °FLight rain. Overcast.1 mph93%29.71 "Hg3 mi
3:00 PM66 °FLight rain. Low clouds.2 mph92%29.73 "Hg2 mi
2:00 PM66 °FLight rain. Overcast.1 mph94%29.74 "Hg3 mi
1:00 PM69 °FThundershowers. Overcast.2 mph85%29.74 "Hg2 mi
12:00 PM70 °FOvercast.2 mph76%29.72 "Hg7 mi
11:00 AM71 °FOvercast.2 mph66%29.72 "Hg11 mi
10:00 AM70 °FPartly sunny.1 mph73%29.73 "Hg9 mi
9:00 AM67 °FPartly sunny.2 mph81%29.73 "Hg9 mi
8:00 AM65 °FOvercast.2 mph84%29.74 "Hg5 mi
7:00 AM62 °FOvercast.1 mph89%29.75 "Hg11 mi
6:00 AM62 °FOvercast.1 mph90%29.76 "Hg10 mi
5:00 AM62 °FOvercast.1 mph89%29.77 "Hg6 mi
4:00 AM62 °FOvercast.1 mph88%29.78 "Hg7 mi
3:00 AM61 °FOvercast.1 mph91%29.78 "Hg6 mi
Weather by CustomWeather, © 2014

See weather overviewHow to use our weather pages